Probability
0 0 0 0 0 0 0 0 0 0 0 0 0 0 0 0 0 0 0 0 0 0 0 0 0 0 0 0 0 0 0 0 0 0 0 0 0 0 0 0 0 0 0
0 0 0 0 0 0 0 0 0 0 0 0 0 0 0 0 0 0 0 0 0 0 0 0 0 0 0 0 0 0 0 0 0 0 0 0 0 0 0 0 0 0 0
0 0 0 0 0 0 0 0 0 0 0 0 0 0 0 0 0 0 0 0 0 0 0 0 0 0 0 0 0 0 0 0 0 0 0 0 0 0 0 0 0 0 0
0 0 0 0 0 0 0 0 0 0 0 0 0 0 0 0 0 0 0 0 0 0 0 0 0 0 0 0 0 0 0 0 0 0 0 0 0 0 0 0 0 0 0
0 0 0 0 0 0 0 0 0 0 0 0 0 0 0 0 0 0 0 0 0 0 0 0 0 0 0 0 0 0 0 0 0 0 0 0 0 0 0 0 0 0 0
0 0 0 0 0 0 0 0 0 0 0 0 0 0 0 0 0 0 0 0 0 0 0 0 0 0 0 0 0 0 0 0 0 0 0 0 0 0 0 0 0 0 0
0 0 0 0 0 0 0 0 0 0 0 0 0 0 0 0 0 0 0 0 0 0 0 0 0 0 0 0 0 0 0 0 0 0 0 0 0 0 0 0 0 0 0
0 0 0 0 0 0 0 0 0 0 0 0 0 0 0 0 0 0 0 0 0 0 0 0 0 0 0 0 0 0 0 0 0 0 0 0 0 0 0 0 0 0 0
0 0 0 0 0 0 0 0 0 0 0 0 0 0 0 0 0 0 0 0 0 0 0 0 0 0 0 0 0 0 0 0 0 0 0 0 0 0 0 0 0 0 0
0 0 0 0 0 0 0 0 0 0 0 0 0 0 0 0 0 0 0 0 0 0 0 0 0 0 0 0 0 0 0 0 0 0 0 0 0 0 0 0 0 0 0
0 0 0 0 0 0 0 0 0 0 0 0 0 0 0 0 0 0 0 0 0 0 0 0 0 0 0 0 0 0 0 0 0 0 0 0 0 0 0 0 0 0 0
0 0 0 0 0 0 0 0 0 0 0 0 0 0 0 0 0 0 0 0 0 0 0 0 0 0 0 0 0 0 0 0 0 0 0 0 0 0 0 0 0 0 0
0 0 0 0 0 0 0 0 0 0 0 0 0 0 0 0 0 0 0 0 0 0 0 0 0 0 0 0 0 0 0 0 0 0 0 0 0 0 0 0 0 0 0
0 0 0 0 0 0 0 0 0 0 0 0 0 0 0 0 0 0 0 0 0 0 0 0 0 0 0 0 0 0 0 0 0 0 0 0 0 0 0 0 0 0 0
0 0 0 0 0 0 0 0 0 0 0 0 0 0 0 0 0 0 0 0 0 0 0 0 0 0 0 0 0 0 0 0 0 0 0 0 0 0 0 0 0 0 0
0 0 0 0 0 0 0 0 0 0 0 0 0 0 0 0 0 0 0 0 0 0 0 0 0 0 0 0 0 0 0 0 0 0 0 0 0 0 0 0 0 0 0
0 0 0 0 0 0 0 0 0 0 0 0 0 0 0 0 0 0 0 0 0 0 0 0 0 0 0 0 0 0 0 0 0 0 0 0 0 0 0 0 0 0 0
0 0 0 0 0 0 0 0 0 0 0 0 0 0 0 0 0 0 0 0 0 0 0 0 0 0 0 0 0 0 0 0 0 0 0 0 0 0 0 0 0 0 0
0 0 0 0 0 0 0 0 0 0 0 0 0 0 0 0 0 0 0 0 0 0 0 0 0 0 0 0 0 0 0 0 0 0 0 0 0 0 0 0 0 0 0
0 0 0 0 0 0 0 0 0 0 0 0 0 0 0 0 0 0 0 0 0 0 0 0 0 0 0 0 0 0 0 0 0 0 0 0 0 0 0 0 0 0 0
0 0 0 0 0 0 0 0 0 0 0 0 0 0 0 0 0 0 0 0 0 0 0 0 0 0 0 0 0 0 0 0 0 0 0 0 0 0 0 0 0 0 0
0 0 0 0 0 0 0 0 0 0 0 0 0 0 0 0 0 0 0 0 0 0 0 0 0 0 0 0 0 0 0 0 0 0 0 0 0 0 0 0 0 0 0
0 0 0 0 0 0 0 0 0 0 0 0 0 0 0 0 0 0 0 0 0 0 0 0 0 0 0 0 0 0 0 0 0 0 0 0 0 0 0 0 0 0 0
0 0 0 0 0 0 0 0 0 0 0 0 0 0 0 0 0 0 0 0 0 0 0 0 0 0 0 0 0 0 0 0 0 0 0 0 0 0 0 0 0 0 0
0 0 0 0 0 0 0 0 0 0 0 0 0 0 0 0 0 0 0 0 0 0 0 0 0 0 0 0 0 0 0 0 0 0 0 0 0 0 0 0 0 0 0
0 0 0 0 0 0 0 0 0 0 0 0 0 0 0 0 0 0 0 0 0 0 0 0 0 0 0 0 0 0 0 0 0 0 0 0 0 0 0 0 0 0 0
Wind_Speed
2 1 1 1 2 3 3 4 4 4 5 6 6 6 7 7 7 7 7 8 8 8 8 9 9 9 7 6 6 6 7 8 16 13 6 6 8 9 10 8 9 9 10
1 1 1 2 3 3 4 4 5 5 6 6 7 7 8 8 8 8 8 8 8 9 9 9 10 8 9 7 7 8 8 8 12 18 10 6 8 8 9 10 10 10 8
1 1 2 3 3 4 5 5 5 6 7 7 7 8 8 8 9 8 9 9 9 9 9 9 10 10 11 9 9 9 8 10 9 13 14 7 6 7 9 9 11 9 11
0 1 3 4 4 5 5 6 6 7 7 8 8 8 9 9 9 9 9 9 9 9 9 10 10 11 12 12 11 11 10 10 10 11 13 10 8 7 7 8 9 7 9
1 2 4 4 5 5 6 6 7 7 8 8 9 9 9 8 8 9 8 9 9 10 10 10 12 17 21 18 14 10 10 10 10 11 12 11 9 7 8 7 11 8 8
2 3 4 5 5 6 7 7 8 8 8 9 9 9 9 9 17 23 18 10 9 10 10 10 12 15 19 25 27 25 21 14 11 12 12 13 13 10 9 9 10 10 10
3 4 5 6 6 7 7 8 8 8 9 9 9 9 10 12 21 24 24 15 10 9 10 10 11 13 19 12 18 24 22 25 25 16 15 14 13 10 10 11 11 12 12
4 5 6 6 7 7 7 8 8 8 8 8 9 9 10 13 22 24 24 14 10 10 10 10 12 12 13 15 12 12 12 13 16 13 12 13 13 11 11 13 13 14 12
6 7 6 6 7 7 8 9 8 8 8 8 9 9 10 13 20 24 24 10 9 10 10 11 13 12 19 26 17 13 13 12 17 23 25 23 25 26 20 11 10 11 12
6 6 6 6 7 8 9 9 8 8 9 9 9 9 11 11 18 23 23 9 9 9 9 10 17 20 24 26 15 12 14 12 11 12 15 17 16 17 22 13 8 10 10
6 6 6 7 8 9 8 8 8 8 9 9 10 9 9 12 17 22 23 11 9 10 9 8 9 22 26 27 23 14 17 18 11 10 10 9 9 8 9 9 8 9 10
6 7 7 8 8 7 8 8 8 8 9 9 9 10 7 9 14 18 23 22 21 13 10 8 11 23 27 27 21 20 26 22 8 7 7 7 7 7 6 7 8 9 9
7 8 8 8 8 7 8 8 8 7 7 8 8 9 9 6 10 21 24 25 25 16 11 19 24 27 26 18 19 25 20 9 6 7 7 7 6 6 5 5 6 7 8
8 8 7 8 8 7 7 6 7 7 7 8 9 10 10 8 7 7 8 11 17 15 12 17 24 24 19 18 17 12 7 6 7 7 7 6 5 5 5 5 5 5 5
8 8 7 7 8 8 7 7 8 8 9 11 9 9 11 12 13 22 18 11 10 12 14 10 9 8 7 7 6 6 5 5 6 5 6 6 6 5 5 4 4 4 5
7 7 6 6 6 7 8 9 13 15 22 23 23 21 16 21 27 28 27 27 27 26 18 9 9 8 8 7 7 6 5 5 5 6 6 6 6 5 5 4 4 5 5
8 7 6 6 7 7 7 9 11 13 18 21 23 25 24 26 28 27 27 26 26 24 11 8 8 8 7 7 6 6 6 6 5 5 6 6 5 5 5 5 4 5 5
7 9 9 7 7 7 8 8 9 11 12 9 13 21 25 26 26 25 26 22 13 10 7 8 8 7 7 6 6 6 6 6 5 5 6 6 5 5 5 5 5 5 5
7 7 7 7 7 8 8 9 9 11 12 12 10 12 19 21 23 23 21 9 9 9 8 7 7 7 6 6 6 6 6 6 6 6 5 6 5 5 6 6 5 9 7
7 14 13 9 8 8 8 9 10 10 11 11 11 10 9 11 10 10 8 7 8 9 8 8 7 7 7 6 6 6 6 6 6 6 5 5 5 5 6 7 6 5 5
6 9 16 12 8 9 9 10 10 10 11 11 11 13 21 13 10 10 9 8 8 8 8 8 7 7 7 6 6 7 8 7 6 5 5 5 5 5 5 5 5 5 5
7 7 8 9 9 9 10 10 10 11 11 13 11 12 21 13 9 9 9 9 8 7 7 7 7 7 6 6 6 7 7 7 6 6 6 6 6 6 5 5 5 5 5
7 9 10 10 9 14 14 10 10 10 11 11 11 11 11 10 10 10 10 9 8 8 7 7 8 8 7 6 7 7 7 7 6 6 6 6 6 6 5 6 6 6 6
8 9 11 11 10 11 11 11 10 10 11 11 11 11 11 10 10 11 10 9 8 8 8 7 8 10 11 9 7 7 7 8 7 7 8 8 7 6 6 6 6 7 6
8 10 11 11 11 11 11 11 11 11 11 11 11 11 11 11 11 11 10 9 9 9 10 9 8 9 11 12 10 9 13 17 16 10 7 7 8 8 7 7 7 7 7
10 11 11 10 10 10 10 11 11 11 11 11 11 11 11 11 11 11 10 9 9 9 9 8 9 11 12 11 12 15 19 19 19 19 11 7 8 8 8 7 9 8 8
Wind_Direction
93 68 26 344 331 314 298 292 295 295 297 294 291 290 288 285 283 280 278 279 277 277 277 274 271 269 267 261 258 256 256 257 274 280 260 257 259 265 273 271 271 269 269
94 35 336 316 309 303 299 300 303 300 297 294 292 289 286 286 284 283 283 284 282 283 283 283 282 284 279 273 267 263 262 258 268 280 279 263 258 262 265 266 270 269 261
90 337 310 306 306 300 299 301 301 297 293 290 288 285 285 285 284 280 278 277 276 277 280 282 284 285 282 277 272 269 267 268 265 273 279 272 263 262 267 267 264 264 264
68 300 296 296 296 294 295 296 293 290 289 287 285 282 281 280 279 277 276 275 274 273 272 272 274 274 275 275 274 270 269 268 266 270 276 276 268 258 258 264 268 257 260
292 287 284 288 292 293 291 289 288 286 285 283 282 281 279 278 278 278 275 271 271 273 272 269 270 275 276 278 276 270 263 264 266 268 272 275 271 264 259 260 268 266 259
286 283 286 290 289 287 285 284 284 284 283 282 281 282 282 285 293 295 295 283 274 275 278 276 277 282 283 284 284 284 281 275 272 269 273 272 274 268 264 262 267 270 270
277 278 280 281 281 280 281 284 284 284 283 283 283 284 284 286 295 298 298 296 284 280 279 281 286 285 290 282 282 284 283 282 279 276 275 274 276 272 269 269 266 266 267
271 272 272 271 274 277 280 281 282 281 283 285 287 286 286 290 299 301 302 297 285 280 277 278 279 279 279 283 276 272 268 271 273 274 266 267 267 264 257 262 265 266 264
267 267 267 269 275 280 282 281 281 284 286 285 284 286 287 291 298 301 302 291 283 279 277 278 282 280 283 289 286 278 276 272 276 275 273 273 273 274 271 264 260 265 267
266 268 273 277 278 279 279 280 281 282 282 284 284 283 284 286 295 301 302 292 287 284 280 276 283 287 289 291 287 280 280 279 273 274 274 275 275 276 276 269 263 268 271
272 279 280 277 275 276 277 277 279 279 281 283 284 284 283 287 298 301 302 298 287 287 286 284 279 290 292 293 292 284 281 284 276 271 271 268 263 258 255 250 244 250 259
278 278 277 276 277 281 278 279 278 280 284 285 286 288 281 285 292 296 298 299 299 294 290 287 284 292 294 295 295 291 292 295 287 280 277 275 271 264 256 249 247 245 245
279 277 277 278 277 276 277 281 283 281 281 284 284 287 288 279 284 294 297 299 299 296 288 291 296 299 300 298 294 295 296 293 285 281 278 276 268 263 263 261 256 251 251
278 279 279 281 282 279 277 277 279 279 280 283 285 288 290 286 280 280 279 288 292 292 290 289 294 296 294 292 293 295 286 275 279 276 279 277 275 272 268 265 268 261 257
277 278 280 279 280 282 277 272 278 267 273 286 284 282 289 292 288 295 298 293 289 285 292 286 284 286 283 282 282 282 277 282 284 275 279 280 278 272 268 262 260 262 257
279 279 278 278 279 279 283 286 278 278 289 290 290 291 290 291 298 300 301 301 302 300 300 291 290 288 288 290 290 287 280 278 277 278 279 277 275 273 270 262 255 254 256
274 278 279 277 279 279 281 286 292 292 287 289 292 295 295 298 300 302 304 304 303 304 297 287 285 285 285 286 285 284 282 278 276 276 279 277 273 271 269 264 256 253 252
276 280 283 277 275 276 279 282 285 291 296 290 288 292 297 299 301 303 305 307 301 296 279 280 280 280 282 282 281 282 281 280 277 275 274 272 268 268 269 264 255 248 249
278 277 277 275 275 277 280 282 283 284 286 291 292 292 296 300 301 300 302 295 291 288 283 279 277 277 277 278 278 278 277 277 275 274 272 271 267 265 265 262 257 257 253
274 281 287 285 281 281 282 284 285 285 286 289 291 294 297 296 292 292 287 280 282 283 283 281 278 275 275 275 275 277 276 273 269 266 266 267 265 262 265 263 257 253 246
273 279 287 288 281 281 283 283 283 284 285 287 287 290 296 296 293 291 289 285 281 281 282 281 278 275 273 272 271 273 272 272 267 264 265 265 265 264 262 261 261 254 247
275 276 277 279 281 282 284 281 282 283 285 287 289 293 297 294 288 286 285 283 279 275 273 275 276 271 267 266 268 272 272 272 269 265 264 262 261 262 261 260 258 252 246
274 279 281 281 281 285 288 284 282 283 284 286 289 291 291 288 285 285 285 283 280 278 274 273 275 274 268 262 261 262 266 269 266 261 262 263 260 257 257 257 255 252 247
275 278 281 283 282 282 283 285 284 284 285 286 287 289 289 288 287 287 285 282 280 278 275 273 273 273 271 269 267 262 260 262 262 258 254 255 257 256 254 254 252 247 245
280 282 283 283 284 285 286 287 287 286 287 289 289 290 290 290 289 288 286 282 280 279 278 277 276 275 273 270 269 265 270 275 275 270 254 249 249 248 249 251 250 248 244
283 284 285 284 284 285 286 288 289 289 289 290 290 289 289 290 290 288 287 285 283 282 281 279 275 274 274 274 272 273 278 279 277 275 267 250 243 245 244 246 245 244 243